W K Kellogg Airport Battle Creek US
ICAO: KBTL
IATA: BTL
Category: Medium
Scheduled Services: No

Elevation: 952 ft
TransAlt. 18000 ft.

Airport Communications:
KALAMAZOO APP/DEP:119.2
ATIS:128.325
CTAF:118.5
GND:121.7
ANG OPS:32.35
LANSING RDO:122.2
BATTLE CREEK TWR:126.825
UNICOM:122.95

KBTL Zoom In..

Runways:

(A) RW 05L length 10004 ft width 150 ft
---- / hdg 47

(B) RW 05R length 4100 ft width 75 ft
---- / hdg 47

(C) RW 13 length 4835 ft width 100 ft
---- / hdg 130

(D) RW 23L length 4100 ft width 75 ft
---- / hdg 227

(E) RW 23R length 10004 ft width 150 ft
ILS 110.50 / hdg 227

(F) RW 31 length 4835 ft width 100 ft
---- / hdg 310

Location; KBTL
Day. 24 / Time. 12.53 Zulu
* Altimeter: 30.25
* Temperature: 19° c. 66.2°f.
* Wind from: 210° Speed 03 kn.
Dewpoint: 14° c.
Visibility: 10 Statute Miles.
Clouds: Clear (automated report).

KBTL 241253Z 21003KT 10SM CLR 19/14 A3025 RMK AO2 SLP240 T01940139


Wind From 210°
Speed 03 kn.

 
 
jpsmedia.com for Web Design SOUNDCLOUD worldairports.se 2018   terms of use